Temperature
21 22 22 23 23 22 21 20 21 21 21 22 21 21 21 21 21 22 22 22 22 22 22 22 22 21 21 21 20 20 20 20 20 19 19 19 18 18 18 18 18 18 17 17
21 22 22 23 23 22 22 22 21 22 22 21 21 21 21 21 21 21 22 22 22 22 22 22 22 22 21 21 20 20 20 20 20 19 19 19 18 18 18 18 18 17 17 17
20 20 22 22 22 22 22 21 21 21 22 20 20 20 20 21 21 21 22 22 22 22 22 22 22 22 21 21 20 20 19 19 19 19 19 19 18 18 18 18 17 17 17 17
17 20 21 21 21 22 22 21 20 20 20 19 20 21 21 22 22 22 22 22 22 22 22 22 21 21 21 20 20 20 19 19 19 19 19 18 18 18 17 17 17 17 17 17
16 18 20 21 21 21 21 21 20 20 19 19 20 20 21 22 22 22 22 22 22 22 22 22 21 21 21 20 20 20 20 19 19 19 18 18 18 18 17 17 17 17 17 17
15 19 19 20 21 21 21 21 20 19 19 19 19 19 19 21 22 22 22 22 22 22 22 21 21 21 20 20 20 20 20 19 19 18 18 18 18 17 17 17 17 17 16 16
16 18 18 19 19 20 21 20 20 20 19 19 19 20 21 21 21 22 22 22 21 21 21 21 21 20 20 20 20 20 19 19 19 18 18 18 17 17 17 17 16 16 16 16
15 17 18 19 19 19 19 20 20 20 20 20 20 21 21 21 21 21 21 21 21 21 21 21 20 20 20 19 19 19 19 18 18 18 18 17 17 17 17 16 16 16 16 16
15 16 17 18 19 20 20 20 20 21 21 21 20 20 20 20 20 20 21 20 20 20 20 20 20 19 19 19 19 18 18 18 18 17 17 17 17 17 16 16 16 15 15 15
14 15 17 18 19 19 20 20 21 21 21 21 20 20 20 20 20 20 20 20 20 20 19 19 19 19 19 19 18 18 18 17 17 17 17 17 16 16 16 16 15 15 15 15
14 15 16 18 18 19 19 20 20 20 20 20 20 20 20 19 19 19 19 19 19 19 19 18 18 18 18 18 17 17 17 17 17 17 16 16 16 16 16 16 15 15 15 15
14 15 15 17 18 19 19 19 19 19 20 20 20 19 19 19 19 19 19 18 18 18 18 18 18 17 17 17 17 16 16 16 16 16 16 16 16 15 15 15 15 15 15 14
17 17 17 18 18 18 19 19 19 19 19 19 19 19 19 18 18 18 18 18 18 18 17 17 17 17 17 16 16 16 16 16 16 16 15 15 15 15 15 15 15 14 14 14
17 17 17 17 18 18 18 18 18 18 18 19 18 18 18 18 18 17 17 17 17 17 17 17 16 16 16 16 16 15 15 15 15 15 15 15 14 14 14 14 14 14 14 14
16 17 17 17 17 17 18 18 18 18 18 17 17 17 17 17 17 17 17 16 16 16 16 16 16 16 15 15 15 15 15 15 14 14 14 14 14 14 14 14 14 14 14 14
16 16 16 16 16 17 17 17 17 17 17 17 17 17 17 17 17 16 16 16 16 16 16 15 15 15 15 15 15 15 14 14 14 14 14 14 13 13 13 13 13 13 13 13
15 15 15 15 16 16 17 17 17 16 16 16 16 16 16 16 16 16 15 15 15 15 15 15 15 15 14 14 14 14 14 14 13 13 13 13 13 13 13 13 13 13 13 12
15 15 15 16 16 16 16 16 16 16 16 15 15 15 15 15 15 15 15 15 15 15 14 14 14 14 14 14 14 13 13 13 13 13 12 12 12 12 12 12 12 12 12 12
15 15 15 15 16 16 16 15 15 15 15 15 15 15 14 14 14 14 14 14 14 14 14 14 14 14 14 13 13 13 13 13 12 12 12 12 12 12 12 12 12 12 12 11
15 15 15 15 15 15 15 15 15 15 15 14 14 14 14 14 14 14 13 13 13 13 13 13 13 13 13 13 13 13 13 12 12 12 12 12 11 11 11 11 11 11 11 11
15 15 15 15 15 14 14 14 14 14 14 14 14 14 14 14 13 13 13 13 13 13 13 13 12 13 13 13 12 12 12 12 12 12 11 11 11 11 11 11 11 11 10 10
14 14 14 14 14 14 13 13 13 13 13 13 13 13 13 13 13 12 12 12 12 12 12 12 12 12 12 12 12 12 12 11 11 11 11 11 11 10 10 10 10 10 10 10
13 13 13 13 13 13 13 13 13 13 13 13 13 13 13 13 12 12 12 12 12 12 12 12 12 12 12 12 11 11 11 11 11 10 10 10 10 10 10 10 10 10 9 9
13 13 13 12 12 12 12 12 12 12 12 12 12 12 12 12 12 12 11 11 11 11 11 11 11 11 11 11 11 11 10 10 10 10 10 10 10 10 10 9 9 9 9 9
12 12 12 12 12 12 12 12 12 12 12 12 12 12 11 11 11 11 11 11 11 11 11 11 11 11 10 10 10 10 10 10 10 9 9 9 9 9 9 9 9 9 9 8
12 12 12 12 11 11 11 12 11 11 11 11 11 11 11 11 11 11 11 11 11 11 10 10 10 10 10 9 9 9 9 9 9 9 9 9 9 9 9 9 8 8 8 8
12 11 11 11 11 11 11 11 11 11 11 11 11 11 11 11 11 11 11 10 10 10 10 10 9 9 9 9 9 9 9 9 9 8 8 8 8 8 8 8 8 8 8 8
Wind_Speed
4 4 3 4 4 5 6 7 8 8 8 10 8 7 6 5 5 5 5 6 6 6 5 6 5 5 5 5 5 5 6 5 6 5 4 4 3 3 3 3 4 4 3 4
1 2 2 3 4 5 5 4 5 5 8 7 3 3 4 5 7 7 6 6 6 6 6 7 7 7 6 5 5 5 5 5 4 3 3 3 3 3 3 3 3 2 3 4
3 3 1 5 6 6 4 3 5 6 8 3 2 4 6 7 7 8 7 6 7 7 7 7 7 7 7 6 5 5 5 4 4 3 3 3 3 3 3 3 3 3 4 4
2 1 6 8 4 5 6 4 4 6 6 4 5 3 2 4 7 7 6 5 6 6 5 5 5 6 5 5 5 5 4 4 3 3 3 3 3 4 4 3 3 4 5 5
4 4 6 6 2 3 4 5 3 4 3 0 1 3 2 0 3 5 6 5 5 6 5 5 5 6 6 5 5 5 4 4 4 3 3 3 3 4 4 3 4 5 5 6
5 5 7 7 3 1 3 4 3 3 3 1 3 2 4 2 2 3 3 3 4 4 4 5 4 5 6 5 5 5 5 5 4 4 4 4 5 4 4 4 5 4 5 5
5 5 7 6 4 1 4 6 3 3 4 4 4 5 4 2 3 3 4 4 4 4 4 4 4 5 6 5 6 6 4 3 3 4 4 4 3 3 3 4 4 4 6 6
5 4 7 3 2 4 6 3 2 2 3 4 3 1 2 3 4 4 4 4 3 3 2 2 4 5 5 6 5 4 3 3 3 3 3 3 2 3 3 3 4 5 5 6
7 7 5 3 3 3 3 2 2 2 3 3 3 2 2 3 4 4 4 3 2 3 2 1 2 4 5 4 3 3 3 3 3 3 3 2 3 3 2 2 3 4 4 5
2 5 5 4 3 3 2 3 3 3 2 3 2 2 2 3 3 2 2 3 2 3 2 1 1 2 3 3 4 4 4 3 3 3 3 3 2 3 3 4 4 5 5 6
3 5 4 4 3 3 3 2 1 1 1 3 4 2 2 2 2 2 2 2 3 3 3 2 1 1 1 2 3 3 3 3 3 3 3 3 3 3 4 5 6 6 6 6
6 6 4 6 5 3 3 3 3 2 1 2 3 3 2 2 2 2 2 2 3 2 3 2 2 1 1 2 3 3 3 3 3 3 3 3 3 4 5 6 8 9 10 9
5 5 5 6 6 5 4 5 4 3 4 3 3 4 3 2 1 2 2 2 2 2 2 1 1 1 2 2 2 3 3 3 2 3 3 3 3 3 5 6 6 6 7 8
5 3 4 5 5 5 4 4 2 1 1 2 2 3 3 3 2 1 1 2 2 1 0 0 1 2 2 1 2 2 3 3 3 3 3 3 4 4 4 5 5 5 5 6
5 5 6 6 5 4 3 2 1 1 1 1 1 2 3 3 3 2 1 1 1 1 1 1 2 4 3 1 2 3 3 3 3 3 3 3 3 3 4 5 5 5 4 4
4 3 3 3 4 4 3 3 3 3 3 3 2 2 2 3 2 1 1 1 2 2 2 2 3 4 3 2 2 2 3 4 3 2 3 3 3 3 3 3 3 4 4 4
2 4 4 5 6 5 5 5 5 4 4 4 4 3 2 2 1 0 1 1 2 2 2 2 3 4 3 2 2 2 2 2 3 2 2 2 2 3 3 3 3 3 3 3
7 8 7 7 6 5 4 3 3 4 3 3 3 3 3 3 3 2 2 0 1 2 2 2 3 3 3 2 2 2 2 2 2 2 2 2 2 2 2 2 3 3 3 3
4 3 3 3 3 3 3 2 3 2 2 3 3 3 2 2 2 2 1 1 0 2 4 4 4 2 2 3 2 2 2 2 2 2 2 2 2 2 2 2 3 3 3 3
1 0 1 1 0 1 2 2 2 2 2 3 3 3 2 1 1 1 1 1 2 3 3 3 3 2 3 2 2 1 2 2 2 2 2 1 2 2 2 3 3 3 3 3
0 1 1 2 2 2 1 2 3 2 2 2 3 3 2 1 1 1 1 2 4 3 2 3 2 2 2 2 1 1 1 1 1 1 1 1 2 2 3 3 2 3 3 4
1 2 2 3 4 3 3 2 2 3 2 2 2 2 2 1 0 1 1 2 3 3 2 2 2 2 2 1 0 0 0 1 1 1 1 2 2 3 3 2 2 3 3 3
1 2 2 3 3 3 3 3 2 3 3 3 2 2 1 1 1 1 2 2 1 2 1 1 2 2 2 1 1 1 1 1 1 1 2 2 3 3 2 2 2 3 3 3
2 3 3 3 4 4 4 3 3 3 3 3 2 1 1 1 1 1 1 1 1 2 2 2 3 4 3 2 2 2 2 1 1 2 2 2 2 2 2 2 2 3 3 3
2 3 3 4 3 2 2 2 3 4 3 3 3 2 1 1 1 1 1 2 3 3 3 3 4 4 4 2 2 2 2 2 2 2 2 2 2 3 3 3 3 3 3 3
2 2 2 2 1 1 1 2 2 2 2 3 3 2 2 3 3 3 2 3 3 3 3 3 3 3 3 2 2 2 2 2 2 2 3 3 3 3 3 3 4 3 3 3
2 2 2 2 1 1 2 2 2 1 1 1 1 2 2 3 3 3 3 3 3 3 3 3 3 3 3 3 3 3 3 3 3 3 3 3 3 3 3 3 3 3 3 3
Wind_Direction
225 225 193 210 216 186 190 193 194 227 228 246 234 221 211 190 172 165 171 172 170 170 171 167 167 173 176 184 183 176 172 186 206 215 220 226 234 242 246 249 253 255 252 255
262 262 228 239 238 208 210 200 224 249 258 256 243 177 174 176 171 173 184 185 179 178 178 177 180 179 176 180 183 175 183 201 206 205 214 224 235 242 243 250 257 258 258 260
241 288 21 260 234 203 205 206 192 226 248 278 203 196 197 192 186 187 190 184 182 183 189 189 185 177 178 183 171 171 189 203 204 202 210 226 235 236 243 246 250 262 265 268
163 95 222 241 239 199 201 227 225 245 261 227 213 214 204 181 181 189 186 183 187 186 187 184 178 170 168 166 164 174 187 200 204 203 223 238 237 242 247 246 249 255 261 267
143 192 259 288 260 183 199 253 236 234 262 279 76 66 359 185 180 194 193 190 189 185 180 169 169 169 161 167 172 179 197 208 216 212 219 236 248 251 246 241 249 256 260 259
143 171 222 243 269 278 135 263 267 196 201 169 99 139 251 246 179 174 168 172 173 162 153 163 173 160 156 171 179 201 211 216 218 215 214 227 240 249 249 241 247 258 264 260
168 202 249 259 293 104 167 240 265 192 193 168 188 215 226 190 161 157 149 153 150 148 158 175 168 155 165 182 205 217 212 207 211 218 221 226 237 246 252 253 260 261 264 266
160 186 243 274 99 164 220 263 265 212 206 195 202 201 171 158 144 130 120 116 124 137 146 161 164 157 177 207 215 207 192 194 217 232 236 237 237 252 255 249 258 265 269 278
189 211 248 250 214 233 204 225 257 235 233 185 175 174 155 143 138 134 135 132 128 137 140 179 185 173 189 220 196 181 185 205 224 239 245 238 230 243 260 254 259 269 268 273
250 271 279 279 282 280 252 239 253 235 211 170 177 177 149 138 140 135 132 135 121 123 149 188 216 201 201 200 181 175 193 216 227 234 256 260 246 239 245 252 256 260 262 266
261 281 312 301 288 292 306 303 279 234 188 166 148 159 161 156 159 162 145 147 142 158 178 196 191 200 217 183 171 185 213 225 234 233 238 254 260 252 248 248 241 242 251 252
227 230 220 262 280 286 287 279 253 222 197 162 162 169 163 168 171 151 154 160 152 169 182 191 178 201 253 212 183 190 226 239 239 242 248 251 262 283 270 258 257 247 246 245
228 246 242 265 279 276 268 272 269 235 201 187 177 165 158 171 178 149 143 157 174 197 198 176 182 241 258 244 197 196 224 242 249 251 250 253 255 263 285 293 276 268 265 257
251 254 272 271 272 277 275 281 278 254 213 188 174 154 153 151 141 142 176 197 191 179 216 206 238 270 268 247 224 233 238 238 238 245 250 252 251 254 260 271 286 291 284 270
261 252 252 269 281 284 275 242 167 181 199 208 175 162 163 152 161 200 232 216 158 155 227 248 263 281 288 258 242 249 249 243 240 244 251 256 261 261 263 268 276 288 300 300
272 288 270 263 261 262 248 219 197 205 201 200 199 204 190 165 169 182 206 183 189 215 236 245 265 277 285 268 258 260 260 257 256 256 264 271 272 274 276 279 285 289 291 294
238 263 264 262 260 256 247 238 219 209 202 198 196 189 158 134 120 167 268 251 222 232 244 254 276 291 294 273 254 258 261 259 254 272 271 271 274 273 279 279 283 291 293 301
236 238 235 230 235 241 248 241 210 194 194 194 182 175 175 175 190 216 235 229 21 345 318 288 283 289 286 273 256 244 241 245 239 246 259 264 270 275 277 279 282 286 295 307
252 244 244 236 230 211 207 200 198 190 178 168 173 181 180 183 186 195 184 122 90 306 301 301 297 292 285 278 267 234 234 240 255 257 252 259 276 285 279 277 281 284 291 305
272 293 313 309 320 166 180 181 166 158 164 154 142 130 125 141 152 145 117 279 263 258 275 301 308 295 281 274 265 238 235 241 252 264 264 259 268 278 280 283 289 294 299 299
17 53 61 64 51 55 129 154 150 157 163 144 140 145 152 154 136 128 123 297 300 301 299 296 298 289 286 282 271 240 232 246 259 263 268 273 276 281 283 289 298 305 308 310
118 102 88 78 72 53 41 72 117 130 125 120 124 131 132 123 25 3 284 251 278 300 313 305 298 294 305 310 272 213 247 273 289 296 293 292 290 290 294 304 307 306 306 310
115 121 108 92 90 78 54 50 69 101 111 120 125 129 140 177 175 167 297 303 304 320 331 331 346 1 6 24 36 27 359 335 319 313 304 295 291 289 295 305 310 307 304 310
90 93 90 84 85 84 70 40 38 62 80 85 90 110 120 90 14 337 252 313 11 31 37 17 24 23 26 28 33 31 18 0 343 331 322 318 316 317 314 311 311 310 308 310
104 105 104 92 86 96 99 73 56 54 60 63 58 56 78 121 137 354 28 34 39 43 32 23 33 38 37 33 33 30 24 16 359 349 348 347 347 345 336 331 329 326 322 323
112 112 118 126 138 154 134 112 99 82 75 67 49 46 53 55 63 58 60 52 46 43 38 32 35 40 31 23 20 17 15 10 6 9 4 358 358 353 343 345 344 339 336 339
90 87 84 70 56 88 107 115 118 107 106 115 81 51 60 60 63 64 61 55 47 42 44 42 41 37 30 25 22 19 20 15 11 7 1 356 354 348 343 342 339 342 346 350
Height
1495 1492 1492 1492 1493 1496 1500 1503 1509 1503 1499 1487 1482 1481 1482 1483 1484 1486 1488 1490 1492 1495 1497 1499 1501 1503 1505 1507 1509 1510 1511 1512 1513 1514 1515 1515 1515 1515 1515 1515 1515 1514 1514 1514
1495 1491 1491 1492 1490 1491 1492 1494 1496 1494 1491 1479 1478 1479 1480 1481 1482 1484 1486 1488 1491 1493 1495 1496 1498 1500 1503 1505 1507 1508 1509 1509 1510 1511 1512 1512 1512 1512 1512 1512 1512 1511 1511 1511
1505 1496 1492 1500 1489 1489 1489 1488 1490 1492 1484 1478 1478 1477 1477 1479 1480 1482 1484 1486 1488 1491 1493 1495 1497 1499 1500 1502 1504 1506 1507 1508 1508 1509 1509 1509 1509 1509 1509 1509 1508 1508 1508 1507
1509 1503 1511 1493 1480 1480 1482 1483 1482 1481 1478 1477 1476 1475 1476 1477 1478 1480 1482 1484 1486 1489 1492 1494 1496 1497 1499 1500 1502 1503 1504 1505 1506 1506 1506 1506 1506 1506 1505 1505 1505 1504 1504 1504
1512 1511 1503 1488 1479 1480 1483 1482 1478 1478 1476 1476 1475 1475 1476 1477 1477 1479 1481 1483 1485 1487 1490 1492 1493 1495 1497 1498 1499 1500 1501 1502 1503 1502 1502 1502 1502 1502 1502 1502 1501 1501 1500 1500
1508 1508 1508 1489 1476 1475 1479 1484 1475 1474 1474 1475 1475 1480 1477 1475 1476 1478 1480 1482 1484 1486 1488 1490 1491 1493 1494 1495 1496 1497 1498 1499 1500 1500 1499 1499 1499 1499 1498 1498 1497 1497 1496 1496
1504 1503 1495 1479 1475 1475 1489 1484 1472 1472 1472 1472 1473 1473 1472 1472 1474 1476 1478 1480 1482 1484 1486 1487 1489 1490 1491 1492 1493 1494 1495 1496 1497 1497 1496 1496 1495 1495 1494 1494 1493 1492 1492 1491
1502 1502 1495 1475 1474 1479 1478 1472 1470 1470 1470 1471 1470 1471 1470 1471 1472 1474 1476 1478 1481 1482 1484 1485 1487 1488 1489 1489 1490 1491 1492 1493 1494 1494 1493 1492 1492 1491 1491 1490 1489 1488 1487 1486
1489 1487 1476 1473 1472 1472 1472 1471 1470 1469 1469 1470 1469 1470 1470 1471 1472 1474 1476 1478 1480 1481 1482 1483 1485 1486 1486 1487 1487 1488 1489 1489 1490 1490 1490 1489 1488 1487 1487 1486 1485 1484 1483 1482
1482 1476 1473 1472 1471 1471 1470 1470 1469 1469 1469 1469 1469 1469 1470 1470 1472 1473 1475 1476 1478 1479 1480 1480 1482 1483 1483 1484 1484 1485 1485 1485 1486 1486 1485 1485 1485 1484 1483 1482 1481 1480 1479 1478
1480 1475 1472 1470 1470 1470 1469 1469 1468 1468 1468 1468 1468 1469 1469 1470 1471 1472 1474 1476 1477 1477 1478 1478 1479 1480 1481 1481 1481 1481 1481 1481 1481 1481 1481 1481 1481 1480 1479 1478 1478 1476 1475 1474
1477 1472 1472 1469 1469 1469 1468 1467 1467 1467 1466 1467 1468 1468 1469 1470 1471 1472 1473 1474 1475 1475 1476 1476 1477 1477 1478 1479 1479 1478 1478 1478 1477 1477 1477 1477 1476 1475 1475 1474 1473 1472 1470 1469
1468 1468 1468 1467 1467 1467 1466 1465 1465 1465 1465 1465 1466 1467 1468 1469 1470 1471 1471 1472 1473 1473 1473 1474 1474 1475 1475 1476 1475 1474 1474 1474 1474 1474 1473 1473 1472 1471 1470 1469 1468 1467 1465 1464
1466 1466 1465 1464 1464 1464 1464 1463 1463 1463 1463 1464 1464 1465 1466 1467 1468 1469 1470 1470 1471 1472 1472 1472 1472 1472 1472 1472 1472 1471 1471 1470 1470 1470 1469 1469 1468 1466 1465 1464 1463 1462 1461 1460
1462 1462 1462 1461 1461 1461 1461 1461 1460 1460 1460 1461 1462 1462 1463 1464 1465 1466 1468 1469 1470 1470 1470 1470 1470 1470 1469 1469 1469 1468 1467 1466 1466 1466 1465 1465 1464 1462 1461 1460 1459 1457 1456 1456
1458 1458 1458 1458 1457 1457 1457 1457 1457 1456 1457 1458 1459 1460 1461 1462 1463 1464 1465 1466 1468 1467 1467 1467 1467 1467 1466 1466 1465 1464 1463 1462 1462 1462 1461 1460 1460 1459 1457 1456 1455 1453 1452 1451
1455 1455 1454 1454 1453 1453 1453 1453 1453 1454 1455 1455 1457 1458 1459 1459 1460 1461 1462 1464 1465 1465 1464 1464 1464 1464 1463 1463 1462 1460 1459 1459 1459 1458 1457 1457 1456 1455 1454 1453 1451 1450 1449 1448
1452 1451 1451 1450 1450 1449 1449 1450 1451 1452 1453 1453 1455 1456 1456 1457 1457 1459 1460 1460 1461 1461 1461 1461 1461 1461 1460 1459 1458 1457 1456 1456 1455 1454 1454 1453 1453 1452 1450 1449 1448 1447 1445 1444
1447 1447 1447 1447 1447 1446 1446 1447 1448 1450 1451 1451 1452 1453 1453 1455 1456 1457 1458 1458 1458 1457 1458 1458 1457 1457 1457 1456 1455 1454 1453 1452 1451 1450 1450 1449 1448 1448 1447 1446 1444 1443 1442 1440
1444 1445 1445 1445 1445 1445 1445 1445 1447 1448 1449 1450 1451 1451 1452 1453 1454 1455 1456 1456 1456 1455 1455 1455 1454 1454 1453 1453 1452 1451 1450 1449 1448 1447 1446 1445 1445 1444 1443 1442 1441 1440 1439 1437
1442 1442 1443 1443 1443 1444 1444 1445 1445 1446 1447 1449 1449 1449 1450 1452 1453 1453 1453 1453 1453 1453 1452 1452 1452 1451 1450 1450 1449 1448 1447 1446 1445 1444 1443 1442 1441 1440 1439 1438 1437 1437 1435 1434
1441 1442 1442 1443 1442 1443 1443 1444 1445 1445 1446 1447 1448 1449 1449 1450 1451 1451 1451 1451 1450 1450 1450 1449 1449 1448 1448 1447 1446 1445 1444 1443 1442 1441 1440 1439 1438 1437 1436 1435 1433 1433 1432 1431
1441 1441 1441 1442 1442 1443 1444 1444 1444 1444 1444 1445 1446 1447 1448 1449 1449 1449 1449 1449 1448 1448 1448 1447 1447 1446 1445 1444 1444 1443 1442 1441 1440 1438 1437 1437 1435 1434 1433 1432 1431 1430 1429 1427
1440 1441 1441 1442 1443 1443 1443 1444 1445 1444 1444 1445 1446 1447 1447 1447 1448 1448 1448 1447 1447 1447 1446 1446 1445 1444 1443 1442 1441 1441 1440 1439 1438 1437 1436 1434 1433 1432 1431 1430 1428 1427 1426 1424
1441 1442 1442 1443 1443 1444 1444 1445 1446 1446 1446 1446 1446 1447 1447 1447 1447 1447 1446 1447 1447 1446 1445 1444 1443 1442 1442 1441 1440 1439 1439 1437 1436 1435 1434 1432 1431 1430 1429 1428 1426 1425 1423 1422
1441 1442 1442 1442 1444 1444 1445 1446 1446 1447 1447 1446 1447 1447 1447 1447 1447 1447 1447 1447 1447 1446 1445 1444 1443 1442 1442 1441 1440 1439 1438 1436 1435 1434 1433 1432 1430 1429 1427 1426 1424 1423 1421 1419
1441 1442 1443 1443 1444 1445 1445 1446 1446 1447 1447 1447 1447 1447 1448 1448 1448 1448 1447 1447 1446 1446 1445 1444 1443 1443 1442 1441 1440 1438 1437 1436 1435 1434 1432 1431 1429 1427 1426 1424 1423 1421 1419 1418